Location: ???????
(54.9996°N, 37.9529°E)
Time: 11:29:29
(UTC+00:00)

Cosmos 1766 Rocket - Pass Details

Date: 14 April 2024
Orbit: 602 x 629 km, 82.5° (Epoch: 18 May)

Event Time Altitude Azimuth Distance (km) Brightness Sun altitude
Rises 00:01:19 0° 341° (NNW) 2,870 7.4 -18.0°
Reaches altitude 10° 00:03:44 10° 330° (NNW) 1,961 6.4 -17.8°
Maximum altitude 00:07:27 29° 271° (W) 1,125 4.5 -17.4°
Enters shadow 00:07:53 28° 260° (W) 1,138 4.5 -17.4°
